Location: Buckhorn Peak
(37.6641°N, 120.1241°W)
Time: 00:05:04
(UTC+00:00)

Altair - Pass Details

Date: 08 November 2024
Orbit: 1501 x 1683 km, 47.2° (Epoch: 03 December)

Event Time Altitude Azimuth Distance (km) Brightness Sun altitude
Rises 03:25:04 0° 298° (WNW) 4,664 10.9 -29.9°
Reaches altitude 10° 03:28:21 10° 291° (WNW) 3,697 10.3 -30.5°
Maximum altitude 03:36:37 37° 228° (SW) 2,246 8.6 -32.2°
Enters shadow 03:44:08 14° 168° (SSE) 3,521 9.2 -33.7°
